Wind_Speed
21 20 20 19 19 20 20 20 19 19 19 19 19 19 19 19 19 19 18 18 19 19 19 19 19 19 19 20 20 22 23 24 25 24 24 24 24 23 23 22 21 21 21 22 21 21 20 20 19 18 18 19 19 20 20 20 20 20 20 19 19 19 19 19 19 19 19 18 18
21 20 19 18 18 19 20 19 19 18 18 18 18 19 19 19 19 19 19 19 19 18 18 18 18 19 19 20 21 21 22 23 24 25 25 24 24 23 23 23 22 22 22 22 21 21 20 20 20 19 18 19 20 21 22 22 22 21 21 21 21 20 20 20 20 20 20 19 19
21 21 20 19 19 19 19 19 19 19 18 18 18 18 18 18 19 19 19 19 18 18 18 18 18 19 19 20 21 21 22 22 23 24 24 25 24 24 23 22 22 22 22 22 22 21 21 21 21 21 20 20 20 21 22 23 23 23 23 23 22 21 21 21 21 21 20 20 20
22 22 21 20 20 21 20 20 20 20 19 18 18 18 18 17 18 18 18 18 18 18 18 18 18 19 19 20 20 21 21 22 22 23 24 24 25 24 24 23 22 22 22 22 22 22 22 22 22 22 22 22 21 21 21 22 23 23 23 24 23 22 22 23 23 23 23 23 22
23 23 22 21 21 21 21 21 20 20 20 19 18 18 18 17 17 17 18 18 18 18 18 18 18 18 19 20 20 21 22 22 22 22 23 23 24 24 24 23 23 22 22 22 22 22 23 23 22 22 23 22 21 21 21 21 21 22 23 24 24 24 24 24 24 25 25 25 24
24 23 23 22 22 22 21 21 21 21 20 19 19 19 18 18 18 18 18 18 18 18 18 18 18 18 18 19 20 21 21 22 22 22 22 23 23 24 24 24 24 23 22 22 22 23 24 23 22 22 22 22 21 21 21 20 20 21 22 23 23 24 24 23 25 26 26 26 24
24 24 24 23 22 22 22 21 21 21 21 20 20 20 20 19 19 19 19 18 18 18 17 18 18 18 18 19 19 20 21 22 22 22 23 22 22 23 24 25 25 24 23 23 22 23 24 24 23 22 22 22 22 22 22 21 21 22 22 22 22 23 24 24 24 25 25 25 24
24 25 24 24 23 23 23 22 22 21 21 21 21 21 21 21 20 20 19 18 18 17 17 17 18 18 19 19 19 20 21 21 22 22 23 23 23 23 24 25 25 25 25 24 23 24 24 25 24 23 22 22 22 22 23 23 23 23 23 22 22 22 24 24 24 24 24 24 23
24 24 25 25 24 24 23 23 22 22 22 22 22 22 22 21 21 20 19 19 18 18 18 18 18 19 19 19 20 20 21 21 22 22 23 23 23 23 24 24 25 25 25 25 25 25 25 25 24 24 24 23 23 23 23 23 24 24 24 24 22 22 23 24 24 24 24 25 25
24 25 25 25 25 25 24 24 23 23 23 22 22 22 22 21 21 21 20 20 19 19 18 18 19 19 20 20 21 21 21 21 21 22 22 23 24 24 24 24 25 25 26 26 26 26 25 25 25 26 26 25 25 24 23 23 24 25 26 26 25 24 23 24 25 25 26 27 27
25 25 25 25 25 25 25 24 24 24 23 23 23 23 22 22 22 22 21 20 20 20 20 20 19 20 20 21 21 21 22 21 22 22 22 23 24 25 25 25 25 26 26 26 26 26 26 26 26 27 27 27 26 25 24 24 25 27 28 29 28 27 26 26 27 27 28 28 29
26 25 25 25 26 26 26 25 25 24 24 24 24 24 24 23 23 23 23 22 21 21 21 21 21 21 21 21 21 22 22 22 22 22 23 23 24 25 25 25 26 26 26 27 26 26 26 26 27 28 28 27 26 25 24 25 26 28 30 31 31 31 30 29 29 29 29 29 29
27 26 26 26 26 26 26 26 25 25 25 25 25 25 25 24 24 24 24 24 24 23 22 22 22 22 22 22 22 22 22 23 23 23 23 23 24 25 25 26 26 26 27 27 27 26 26 27 28 29 28 27 26 25 25 26 27 29 30 31 31 32 32 31 30 29 28 27 26
29 28 27 27 27 27 27 27 26 26 26 26 26 26 26 25 25 25 25 25 25 25 24 23 23 23 23 23 23 23 23 23 24 24 24 24 24 24 25 26 27 27 27 27 28 28 27 27 28 28 28 28 27 26 27 27 27 29 30 30 30 30 31 30 29 27 26 26 25
31 30 29 28 28 27 27 27 27 26 26 27 27 27 26 26 26 26 26 26 26 26 25 24 24 24 24 24 24 23 23 23 24 24 24 24 24 25 25 26 27 27 27 27 28 29 29 29 29 29 29 29 28 28 27 27 28 29 29 29 29 29 29 28 27 26 26 26 25
32 31 31 30 29 29 28 28 27 27 27 27 27 27 26 26 26 26 26 27 26 26 26 26 25 25 24 24 24 24 24 24 24 24 25 25 25 25 26 26 27 27 28 28 28 29 30 31 31 30 29 29 28 28 28 28 29 29 29 29 28 28 28 27 27 26 26 26 25
32 32 32 31 31 30 29 29 28 27 27 27 27 27 27 27 26 26 27 27 27 26 26 27 26 25 24 24 24 24 24 25 25 25 26 26 27 27 27 27 27 28 28 28 28 28 29 30 31 31 30 29 28 28 28 28 28 29 29 29 28 27 27 27 26 25 25 25 24
33 33 33 32 32 32 31 30 29 28 28 28 28 28 27 27 27 26 27 27 27 27 27 27 27 26 25 25 25 25 25 25 26 26 27 27 27 28 28 27 28 28 28 28 28 28 28 29 30 30 30 29 28 27 27 27 27 27 28 28 28 27 26 26 25 24 23 23 23
33 33 33 33 33 33 32 32 31 30 29 29 28 28 28 28 28 27 27 27 28 28 27 27 27 26 26 26 26 25 25 26 27 27 28 28 28 28 28 28 28 28 28 28 28 28 28 28 28 28 29 28 27 27 26 26 26 26 26 26 26 26 25 24 24 23 22 22 23
33 34 34 34 34 34 33 33 32 32 31 29 29 29 29 29 28 28 28 28 28 28 28 28 27 27 27 27 27 27 27 26 27 28 28 28 28 28 28 28 27 27 28 28 28 28 28 27 27 27 28 28 27 27 26 26 25 25 25 25 25 24 24 23 22 22 21 22 23
34 34 34 34 34 34 34 34 33 33 32 31 30 30 29 29 29 29 29 28 28 28 28 28 28 28 28 28 29 29 28 28 27 27 28 28 28 28 28 28 27 27 27 27 27 28 28 28 27 27 27 27 27 26 26 25 25 25 25 24 23 23 22 22 22 21 21 22 24
34 34 34 34 34 34 34 34 33 33 32 32 31 31 30 30 30 29 29 29 28 28 28 29 29 29 29 29 30 30 29 28 28 27 27 27 27 27 27 27 27 27 27 27 28 28 28 28 28 27 27 26 26 26 25 25 24 24 23 23 22 22 22 21 21 21 22 23 25
34 34 33 33 33 33 33 33 33 33 33 32 32 32 31 30 30 30 30 29 29 29 29 29 29 29 30 29 29 29 29 28 28 27 26 26 26 26 26 26 26 27 27 27 27 27 27 28 28 27 26 26 25 25 24 24 23 22 21 21 21 21 21 20 20 21 23 25 26
33 33 32 32 32 32 32 32 32 32 33 33 33 32 32 31 31 30 30 30 29 29 29 28 28 28 28 29 29 28 28 28 28 27 27 26 26 25 25 25 26 26 27 27 27 27 28 27 27 26 26 25 24 24 23 22 22 21 20 19 19 19 19 20 21 21 23 25 26
33 32 32 31 31 31 32 32 32 33 33 33 33 33 32 32 31 31 30 30 30 30 29 29 28 27 27 27 27 27 27 28 28 28 28 27 26 25 25 25 25 25 26 26 28 29 30 29 27 25 24 23 22 21 20 20 19 19 18 18 18 19 20 21 22 22 23 24 26
32 32 32 32 31 31 31 32 32 33 33 33 33 32 32 32 31 31 30 30 30 29 29 28 28 27 26 26 26 26 27 27 28 29 29 28 27 26 25 24 25 25 26 27 29 31 32 32 30 27 24 22 20 19 19 18 19 19 20 21 22 23 23 23 23 23 24 25 26
31 31 32 32 32 32 32 32 32 33 33 33 32 32 32 32 31 30 30 30 29 29 28 28 27 27 26 25 25 26 27 27 28 29 29 29 28 28 27 26 26 26 26 28 30 32 33 33 32 30 27 24 22 21 21 20 21 23 25 27 28 28 27 27 26 26 25 26 27
31 31 32 32 32 32 32 32 32 32 33 33 32 32 32 31 31 30 30 30 29 28 27 27 27 26 25 25 26 27 28 29 29 29 30 30 30 29 28 27 27 27 27 29 30 32 33 33 33 32 31 29 27 26 25 24 25 26 27 29 29 29 29 29 29 28 27 27 27
31 31 31 32 32 33 33 33 33 33 33 33 32 32 31 31 31 30 30 29 29 28 28 27 27 26 26 27 28 29 29 30 29 29 29 29 30 30 30 29 28 28 28 30 31 32 32 32 33 33 34 33 32 30 27 26 25 25 25 25 25 26 28 29 29 28 29 29 29
32 32 31 32 32 33 33 33 34 34 33 33 32 32 31 31 31 30 30 29 29 29 29 29 28 28 28 29 29 29 30 30 29 29 29 29 29 30 30 30 29 28 28 30 31 32 32 32 32 33 34 34 34 32 28 24 23 23 23 22 22 24 26 27 27 28 29 29 28
32 32 32 32 33 33 33 34 34 33 33 32 32 31 31 31 31 31 30 30 30 30 30 30 29 29 29 29 29 29 29 29 28 28 28 28 29 30 30 30 29 28 28 29 31 32 32 32 32 32 33 34 35 34 30 26 24 24 23 21 21 21 22 24 24 26 26 26 26
31 32 32 32 33 33 34 34 33 33 32 32 31 31 31 32 32 31 30 30 30 30 30 29 29 29 29 29 28 28 28 28 27 27 27 27 27 28 28 28 28 27 27 27 29 30 31 31 32 33 35 36 36 36 35 30 28 26 24 23 22 22 21 20 21 22 23 24 24
31 31 32 32 33 33 33 33 33 32 32 31 31 31 31 31 31 30 30 30 30 30 30 29 29 29 30 29 29 28 27 27 26 26 26 25 25 25 25 25 25 25 25 26 26 28 29 31 33 35 36 37 37 38 36 32 28 26 25 24 23 22 22 21 21 21 23 24 25
31 31 32 32 33 33 33 32 32 31 31 31 31 31 31 30 30 30 29 29 29 29 29 29 29 29 29 29 27 25 24 24 24 24 24 24 23 22 22 22 23 23 24 25 26 27 29 31 33 34 35 36 37 37 35 31 28 27 27 26 25 25 25 24 23 23 24 24 25
31 31 32 32 32 32 32 31 31 30 30 30 30 30 30 30 30 29 29 29 28 28 28 28 28 28 28 27 25 23 22 21 21 22 23 22 21 20 20 21 22 23 24 26 27 29 30 31 31 32 34 36 36 35 33 29 28 27 26 25 25 25 25 24 24 23 22 22 23
31 32 32 32 32 31 31 30 30 29 29 29 30 30 30 30 29 29 28 28 27 27 27 28 28 27 27 26 24 22 21 20 20 21 21 21 21 21 21 21 21 22 25 26 28 29 30 30 31 32 34 34 34 33 30 27 27 26 24 23 22 21 21 20 19 19 19 18 18
31 31 31 31 31 30 30 29 29 29 29 29 29 29 29 29 28 28 27 27 26 27 27 27 27 26 25 25 24 23 21 20 20 20 21 22 22 22 21 21 20 20 23 25 27 27 28 30 31 32 31 31 30 29 27 25 25 24 22 20 19 18 18 17 17 16 16 15 15
30 30 30 30 29 29 28 28 28 28 29 29 29 29 28 28 27 27 27 26 26 26 27 26 26 25 24 23 22 21 20 18 17 17 18 19 19 19 19 19 17 18 21 24 25 25 27 28 29 28 28 28 27 26 24 23 22 20 19 19 19 19 18 17 17 16 15 15 16
28 28 28 28 28 28 28 27 28 28 28 28 28 28 28 27 27 27 26 26 26 26 26 26 25 24 23 22 20 18 15 11 9 9 9 9 10 12 13 12 13 16 19 21 22 23 23 24 24 24 25 26 27 26 24 22 20 19 18 18 18 17 16 15 14 13 12 13 15
26 26 27 27 28 28 27 27 27 27 27 27 27 27 27 27 26 26 26 26 26 26 26 25 24 22 21 19 17 14 12 9 8 9 9 9 8 10 10 9 10 12 15 18 20 21 22 22 22 22 23 25 26 25 23 21 19 19 19 18 17 15 13 11 10 8 7 7 9
24 25 26 26 27 27 27 27 27 26 26 25 25 25 25 25 25 25 25 25 25 25 24 23 22 19 16 14 13 14 13 12 10 10 11 11 10 11 10 8 8 9 12 15 18 20 21 22 21 22 24 25 25 24 23 21 20 20 19 17 16 14 11 10 8 7 6 6 6
Wind_Direction
195 194 194 194 194 196 197 198 199 198 198 198 198 199 200 201 202 202 202 201 203 205 206 207 207 207 206 205 204 206 209 211 212 212 213 214 215 216 217 217 217 218 220 220 219 219 219 218 216 217 219 220 220 220 221 222 222 222 222 223 224 226 227 229 230 230 230 230 232
197 196 194 193 194 196 198 200 200 200 200 200 200 200 201 202 204 205 205 205 205 206 207 208 209 209 208 206 206 206 208 210 212 213 214 215 216 216 216 217 217 218 219 219 218 218 217 217 216 216 218 221 221 222 223 224 224 224 224 225 226 227 228 228 230 231 231 231 232
199 198 196 195 195 197 199 201 202 201 201 202 202 202 203 204 206 207 208 208 207 207 208 209 210 210 209 208 208 208 209 210 211 213 214 215 216 216 215 216 216 218 218 218 217 217 217 217 217 217 218 221 223 224 225 227 227 226 226 226 226 226 227 228 229 230 230 230 230
201 200 199 198 198 199 201 203 204 204 203 204 204 205 205 206 207 209 211 211 210 209 210 210 212 212 211 211 210 209 210 211 211 212 214 216 216 216 215 215 215 216 217 218 217 217 218 218 218 219 221 222 223 224 225 227 226 226 226 227 226 226 227 229 229 229 229 229 228
203 203 202 202 201 201 203 205 206 206 206 206 206 207 208 209 209 210 212 212 212 212 211 211 212 213 213 213 211 211 211 211 211 211 213 215 216 216 216 215 215 215 216 217 217 218 218 219 220 221 222 223 224 224 225 225 225 225 226 227 226 226 227 229 230 230 229 229 228
204 205 205 204 203 203 205 207 208 208 208 209 209 209 210 210 210 211 211 213 213 213 212 212 213 214 214 213 212 211 211 211 211 212 213 214 215 216 216 215 216 216 216 217 218 219 220 220 220 222 224 224 224 225 225 224 223 224 225 226 227 227 227 228 229 230 230 229 228
205 205 206 206 205 205 206 208 209 210 210 211 211 211 211 211 211 211 211 212 213 213 212 212 213 214 214 214 212 212 211 211 211 212 213 214 214 215 217 217 217 217 217 217 218 219 221 220 220 222 224 224 225 225 225 223 222 223 224 225 227 227 227 227 229 231 231 230 230
206 206 207 207 207 207 207 208 209 210 211 212 213 212 212 212 212 211 211 212 213 213 213 212 212 213 213 213 213 212 211 211 210 212 214 214 215 216 217 217 218 218 218 217 217 218 220 221 221 222 224 225 225 226 225 223 222 223 224 224 226 227 227 227 228 230 231 232 233
207 207 208 209 209 208 208 209 209 210 211 213 214 214 213 213 213 212 212 212 213 213 213 214 213 213 213 214 214 213 213 212 212 212 213 214 215 216 216 217 217 218 218 217 217 217 219 221 222 224 224 225 226 226 226 225 223 223 224 224 224 225 227 228 228 230 233 237 240
207 208 209 209 210 210 210 210 210 211 212 214 215 215 214 214 214 213 214 214 214 214 214 215 215 214 214 214 215 215 214 213 213 212 212 213 215 216 216 217 216 216 216 216 216 217 218 220 223 225 226 227 228 228 228 226 224 223 224 225 224 224 226 228 228 229 232 235 238
208 209 209 209 210 210 211 211 212 212 213 215 216 216 216 215 215 215 215 216 216 216 216 217 216 216 215 215 215 215 215 215 214 213 213 214 215 216 216 217 216 216 216 215 215 216 217 219 222 225 227 228 229 228 227 225 224 224 225 226 225 224 223 226 229 230 230 232 236
210 211 211 210 210 210 211 211 213 214 215 216 217 217 217 217 216 216 216 217 218 218 219 219 218 217 217 216 216 216 216 215 215 215 214 214 215 215 215 216 216 216 216 216 215 215 216 219 222 224 226 227 227 226 225 224 224 224 225 226 226 225 223 225 229 232 233 232 233
212 213 213 212 211 211 211 212 213 215 216 216 217 218 218 218 218 217 217 218 219 220 220 220 220 219 219 218 217 216 216 216 216 216 216 216 215 215 215 216 217 217 216 216 215 215 216 219 222 224 225 225 226 225 224 223 222 223 224 225 226 225 225 226 228 230 231 230 229
214 215 215 214 213 212 212 213 214 215 216 217 218 218 219 219 219 218 218 218 219 220 221 221 221 221 220 220 219 217 216 216 217 217 217 217 217 216 216 217 217 217 217 216 216 216 217 219 221 223 224 224 224 224 224 223 223 224 225 225 225 226 228 229 228 227 226 227 229
214 215 216 215 214 213 213 214 215 216 217 218 218 218 219 219 219 218 218 219 220 221 222 222 222 222 222 221 220 219 218 217 218 218 218 219 218 218 217 217 217 217 217 217 217 217 218 220 221 222 223 224 224 224 225 226 226 226 226 225 226 227 229 230 228 226 225 225 227
214 215 216 216 215 215 214 214 215 216 217 217 218 218 218 219 219 219 218 219 220 221 222 222 223 223 223 222 221 220 219 219 219 219 220 220 220 220 219 218 218 217 217 217 218 219 220 221 222 223 223 224 225 225 226 226 226 226 226 227 227 228 229 229 228 226 225 225 225
214 215 215 216 216 216 216 215 216 216 217 217 218 218 218 218 219 219 218 219 220 221 222 222 222 223 223 222 221 220 220 220 220 221 221 222 222 222 221 219 219 218 218 217 218 220 221 223 223 224 224 225 226 227 226 226 226 226 227 228 228 229 229 229 228 226 225 224 223
214 215 215 216 216 216 216 216 217 217 218 218 218 218 218 218 218 219 219 219 219 220 221 222 222 222 222 222 221 220 220 220 221 222 223 223 224 224 224 222 221 220 220 219 219 220 221 222 223 224 225 226 227 227 227 227 226 227 228 228 229 229 229 228 228 226 225 222 220
215 215 216 216 216 217 217 217 218 218 218 219 218 218 218 218 218 219 219 219 219 220 221 221 222 222 222 222 221 221 221 221 222 224 224 225 226 226 226 224 222 221 221 221 221 221 221 221 221 223 225 226 227 227 227 227 227 227 228 228 229 229 228 227 226 225 224 223 221
216 216 216 216 216 217 217 218 218 219 219 220 219 219 219 219 219 219 219 220 219 219 220 221 221 222 222 222 222 222 222 223 224 225 226 227 227 226 226 226 223 222 221 221 221 221 221 221 221 222 224 226 227 227 228 228 228 229 230 230 230 230 229 228 226 225 224 224 224
217 216 216 216 217 217 218 218 219 220 220 221 221 221 220 220 220 220 220 220 220 220 220 220 221 222 222 222 222 223 223 224 224 225 226 227 227 227 227 227 226 224 222 221 221 222 221 221 221 223 224 226 226 227 227 228 229 231 231 232 232 231 231 230 229 227 225 224 224
218 218 217 217 217 218 218 219 220 221 222 222 223 222 222 222 221 221 221 221 221 221 221 221 222 222 222 222 223 223 224 225 225 226 226 227 227 227 227 227 226 226 224 223 223 222 221 221 221 222 223 224 225 225 226 227 229 231 232 232 233 233 233 233 232 230 227 225 224
219 219 219 219 219 219 220 220 221 222 223 223 224 224 223 223 223 222 222 222 222 222 222 222 222 223 223 224 224 224 225 226 226 227 227 227 228 228 228 227 226 226 225 224 222 220 219 220 221 222 223 224 225 225 225 225 228 231 232 233 234 235 236 236 235 232 228 226 224
219 219 220 220 220 220 221 221 222 223 224 224 224 225 225 224 224 224 223 223 223 223 223 223 224 224 224 225 226 226 227 227 228 229 229 229 229 229 228 227 226 226 225 223 221 220 219 218 220 221 223 224 225 225 225 226 228 230 232 234 236 238 240 241 239 234 228 225 224
219 219 220 220 221 221 221 222 222 223 224 224 225 225 225 225 225 225 225 224 224 224 224 224 225 225 225 226 227 227 228 229 230 231 232 232 231 229 227 226 226 225 225 224 223 221 220 219 218 219 221 222 223 223 223 224 225 227 230 234 239 242 244 244 240 235 228 225 226
218 218 219 220 221 221 221 222 223 223 224 224 225 225 225 225 225 225 226 226 226 225 225 226 226 227 227 227 227 228 229 230 231 233 233 233 232 230 227 226 228 228 228 227 226 224 222 220 218 217 217 217 217 216 216 217 221 227 233 240 243 245 243 240 236 231 228 227 229
217 217 218 219 220 221 221 222 223 223 224 224 225 225 225 225 225 226 226 226 226 226 226 226 227 227 228 228 229 229 230 231 232 233 233 233 232 230 229 229 229 230 230 229 228 226 224 221 219 216 214 212 210 209 210 217 228 238 244 247 246 243 238 233 230 227 226 228 232
217 217 217 218 219 220 221 222 223 223 224 224 225 225 225 225 225 225 226 226 226 226 226 227 227 227 228 229 230 231 231 231 232 232 232 232 232 231 230 230 231 231 230 230 229 227 225 221 219 217 215 213 211 212 218 230 239 246 248 248 244 238 233 228 225 225 227 231 235
217 217 217 218 219 220 221 222 222 223 224 224 225 225 225 225 225 225 224 224 224 224 224 225 225 225 226 229 231 232 232 231 231 231 231 231 231 231 231 231 232 232 231 230 229 227 224 221 219 217 217 216 217 221 229 239 246 248 246 244 237 230 226 224 224 226 231 235 237
218 218 218 219 220 221 221 222 222 223 223 224 224 224 224 224 224 223 223 222 222 222 222 222 223 224 226 228 230 231 232 231 230 230 229 229 229 229 230 230 232 233 232 230 228 226 224 221 219 219 220 221 224 228 234 240 246 248 245 239 231 225 223 223 226 230 234 238 240
218 218 219 220 221 222 222 222 223 223 223 223 223 223 223 223 222 222 221 221 221 221 221 222 224 226 228 229 230 231 231 231 230 229 228 227 228 228 228 229 231 232 232 230 228 225 223 221 221 223 226 229 230 233 236 241 245 245 241 234 227 223 223 225 228 232 236 239 241
218 219 219 220 221 222 223 223 223 223 223 223 223 223 223 222 222 221 221 221 222 223 223 224 227 230 232 233 232 232 232 231 230 228 227 226 227 227 227 228 230 231 231 230 228 226 224 224 227 231 234 235 236 239 242 243 244 242 237 231 229 227 226 228 231 235 237 239 241
219 219 220 221 222 223 223 224 224 224 224 224 223 223 223 223 222 222 222 222 223 224 226 227 230 232 234 235 235 235 234 232 231 229 228 227 227 227 227 228 229 229 229 229 229 228 228 230 234 236 236 237 238 242 244 242 240 237 233 230 228 227 229 232 234 236 238 239 240
219 220 220 221 222 223 224 224 224 224 224 224 224 223 223 223 223 223 223 224 224 225 227 229 232 234 236 236 236 235 234 233 232 231 230 230 229 228 227 227 228 228 228 229 231 232 233 235 235 235 236 238 241 242 241 238 234 232 231 229 229 229 230 231 233 234 236 237 237
220 221 221 222 223 224 224 224 224 224 224 224 224 224 224 224 224 225 225 224 225 226 228 231 233 236 237 237 235 234 232 231 231 231 231 230 229 228 227 227 230 231 231 232 234 235 235 235 235 236 238 241 242 240 237 233 230 229 228 228 229 232 234 235 234 233 233 235 236
221 222 223 223 224 225 225 226 225 225 224 224 224 224 224 224 225 225 225 225 226 227 230 232 233 234 235 234 233 231 229 228 228 229 229 229 229 229 229 230 234 236 236 235 236 237 237 237 238 240 241 241 240 237 233 229 226 225 226 228 231 233 234 234 233 231 231 233 236
223 223 224 225 226 226 227 227 226 226 226 226 225 225 225 225 225 225 225 225 226 228 229 231 231 230 230 230 230 229 229 227 227 228 228 229 230 231 232 233 236 237 237 237 238 239 240 241 242 240 237 235 233 229 225 222 220 221 223 226 228 226 224 223 223 223 224 226 229
224 224 225 226 227 227 227 227 227 227 228 227 227 226 226 226 226 226 225 224 225 227 229 230 229 228 226 226 227 228 229 229 230 231 232 232 233 233 234 234 234 233 233 234 237 239 241 241 239 235 231 227 223 218 214 212 212 214 217 219 220 220 220 219 217 218 220 222 223
225 225 226 227 228 228 228 228 228 228 228 228 228 228 227 227 227 227 226 225 226 227 228 229 228 227 225 225 224 222 218 213 211 211 213 217 221 222 222 221 221 225 228 229 229 231 232 233 232 229 226 220 214 209 206 205 206 210 213 215 216 216 215 214 213 213 217 222 223
226 226 227 228 228 229 229 228 228 228 228 228 229 229 229 228 229 229 228 228 227 228 228 228 227 227 227 224 215 202 186 167 165 169 170 168 177 186 189 192 206 219 224 223 220 218 218 221 224 225 221 215 209 205 203 202 205 208 210 211 209 205 201 200 199 198 200 209 214
227 227 227 228 228 229 229 229 229 229 228 227 228 229 229 230 230 230 230 229 229 229 228 228 227 223 214 197 179 163 154 156 165 172 173 171 174 177 179 182 200 217 223 220 216 215 215 215 217 216 214 210 208 206 205 205 205 204 203 202 199 191 180 172 168 161 153 147 152
Height
774 775 776 777 778 779 780 781 782 783 784 785 787 788 789 790 791 792 793 795 796 797 798 799 800 802 803 804 805 806 807 808 809 810 811 812 813 814 815 816 817 818 818 819 820 821 822 822 823 824 824 825 825 826 827 827 828 829 830 830 831 831 832 833 834 834 835 836 836
772 773 775 776 777 778 779 780 781 782 783 784 785 787 787 789 790 791 792 793 794 795 797 798 799 800 801 802 803 804 805 807 807 808 809 810 812 812 813 814 815 816 817 818 818 819 820 821 821 822 822 823 823 824 824 825 826 827 827 828 829 830 830 831 831 832 833 834 834
771 772 774 775 776 777 778 779 780 781 782 783 784 785 787 787 788 789 790 792 792 794 795 796 797 798 799 801 802 803 804 805 806 807 808 809 810 811 812 813 814 814 815 816 817 817 818 819 819 820 821 821 821 822 822 823 824 825 825 826 827 827 828 828 829 830 831 831 832
770 771 772 773 774 776 777 778 779 780 781 782 783 784 785 786 787 788 789 790 791 792 793 794 796 797 798 799 800 801 802 803 804 805 806 807 808 809 810 811 812 813 813 814 815 816 816 816 817 818 818 819 819 820 821 821 822 822 823 824 825 825 826 826 826 827 828 828 829
769 770 771 772 773 774 775 777 777 778 780 781 782 783 784 785 786 787 788 789 790 790 791 792 794 795 796 797 798 799 800 802 802 803 804 805 806 807 808 809 810 811 812 812 813 813 814 815 815 816 816 817 817 818 818 819 820 821 821 821 822 823 823 824 824 824 825 826 826
767 768 769 770 772 773 774 775 776 777 778 779 780 781 782 783 784 785 786 787 788 789 790 791 792 793 794 796 797 797 798 800 801 801 802 803 804 805 806 807 808 809 810 811 811 812 812 813 813 814 814 815 815 816 816 817 818 819 819 819 820 820 821 821 821 822 822 823 824
766 767 768 769 770 772 772 774 775 776 777 778 779 780 780 782 782 783 784 785 787 787 788 790 791 792 793 794 795 796 797 797 798 799 800 802 802 803 804 805 806 807 808 809 809 810 810 811 811 812 812 812 813 813 814 815 816 816 816 817 817 818 818 819 819 819 820 821 822
764 765 766 767 768 770 771 772 773 775 776 776 777 778 779 780 781 782 783 784 785 786 787 788 789 790 791 792 793 794 795 796 796 797 798 799 800 801 802 803 804 805 806 807 807 807 807 808 809 809 810 810 811 811 812 812 813 813 814 814 815 815 816 816 816 817 818 819 821
762 763 765 766 767 768 769 771 772 773 774 774 775 776 777 778 779 781 782 782 783 784 785 786 787 788 789 790 791 792 792 793 794 795 796 797 798 798 799 800 801 802 803 804 804 805 805 806 806 807 807 807 808 808 809 810 811 811 811 812 812 813 813 813 814 814 815 816 818
760 762 763 764 765 766 767 769 770 771 772 773 774 775 776 777 778 779 780 781 782 783 783 784 785 786 787 788 789 790 790 791 792 793 793 794 795 796 797 798 798 799 800 801 802 802 803 803 803 803 804 804 805 806 807 808 808 808 808 809 809 810 810 811 811 812 812 813 814
758 759 761 762 763 765 766 767 768 769 770 771 772 773 774 775 776 777 778 779 780 781 782 782 783 784 785 786 787 787 788 789 790 790 791 792 792 793 794 795 795 796 797 798 799 799 800 801 801 801 801 802 802 804 805 805 805 805 805 805 806 807 807 808 808 809 809 809 810
756 757 759 760 761 762 764 765 766 767 768 769 770 771 772 773 774 775 776 777 778 779 779 780 781 782 782 783 784 785 786 786 787 788 788 789 789 790 791 792 792 793 794 795 796 797 797 797 797 797 798 799 800 801 802 802 802 802 802 802 802 803 803 804 805 806 806 806 806
754 755 757 758 759 760 762 762 764 765 766 767 768 769 770 771 772 773 774 775 776 776 777 778 779 779 780 781 781 782 783 784 784 785 786 786 787 787 788 789 790 790 791 792 793 793 794 794 794 795 795 796 797 798 798 799 799 799 799 799 800 800 800 800 801 802 803 804 804
752 753 754 755 757 758 759 760 761 762 763 764 765 766 767 768 769 771 772 772 773 774 775 776 776 777 777 778 779 780 780 781 782 782 783 784 784 785 786 786 787 787 788 789 790 790 791 791 791 792 792 793 794 795 795 796 797 797 796 797 797 797 798 798 799 800 801 801 802
750 751 752 753 754 755 756 757 758 759 760 761 762 763 765 766 767 767 768 769 770 771 772 773 774 774 775 776 776 777 778 779 779 780 781 781 782 782 783 783 784 785 785 786 787 787 787 788 788 789 790 790 791 792 792 793 794 794 794 794 794 795 795 796 797 798 799 799 800
747 748 749 750 751 752 753 754 755 756 757 758 759 761 762 763 764 765 766 767 767 768 769 770 771 772 772 773 774 775 776 776 777 777 778 778 779 780 780 781 781 782 782 783 784 784 784 785 786 786 787 787 788 789 789 790 791 791 791 792 792 792 793 794 795 796 796 797 798
744 745 746 747 748 749 750 751 752 753 754 755 756 757 759 760 761 762 762 763 764 765 766 767 768 769 770 771 772 772 773 774 774 775 775 776 776 777 777 778 778 779 780 781 781 782 782 782 783 784 785 785 786 786 787 787 788 788 789 789 790 790 791 792 792 793 794 795 796
741 742 743 744 745 746 747 748 749 750 751 752 753 754 756 757 757 758 759 760 761 762 763 764 765 766 767 768 769 770 770 771 771 772 772 772 773 774 775 775 776 776 777 778 779 779 780 780 781 782 782 783 784 784 785 786 786 786 787 787 787 788 789 790 791 792 793 793 794
737 739 740 741 742 743 744 745 746 747 748 749 750 752 752 753 754 756 757 757 758 759 760 762 762 763 764 765 766 767 767 768 768 768 769 770 771 771 772 772 773 773 774 775 776 777 777 778 779 779 780 781 782 782 782 783 784 784 785 785 786 787 787 788 789 790 791 792 792
734 735 737 737 739 740 741 742 743 744 745 747 747 748 750 751 752 753 754 754 755 757 758 759 760 761 761 762 763 763 764 765 765 766 766 767 768 768 769 770 771 771 772 772 773 774 775 776 776 777 778 779 779 780 781 782 782 783 783 784 785 786 787 787 788 789 789 790 790
731 732 733 734 736 737 738 739 741 742 743 744 745 746 747 748 749 750 751 752 753 754 755 756 757 757 758 759 760 760 761 762 762 763 763 764 765 766 767 767 768 769 770 770 771 772 772 773 774 775 776 777 777 778 779 780 780 781 782 783 784 785 785 786 787 787 788 787 787
728 729 731 732 733 734 736 737 738 740 741 742 742 743 744 745 746 747 748 749 751 752 752 753 754 754 755 756 757 757 758 759 759 760 761 762 762 763 764 765 766 767 767 768 768 769 769 770 772 772 773 774 775 776 777 777 779 780 781 782 783 784 785 785 786 786 786 785 785
726 727 728 730 731 732 734 735 736 737 738 739 740 741 742 743 744 745 746 747 748 749 749 750 751 752 752 753 754 755 756 757 757 758 759 760 760 761 762 763 764 764 765 765 766 766 767 768 769 770 772 772 773 774 775 776 777 778 780 781 782 782 783 784 785 785 784 783 783
724 725 727 728 729 730 732 733 734 735 736 737 737 738 739 740 741 742 743 744 745 746 747 748 749 750 751 752 752 753 754 755 756 756 757 758 758 759 760 761 762 762 762 762 763 763 764 765 767 768 770 771 772 772 773 774 776 777 778 779 780 781 782 783 784 783 782 782 781
722 723 725 726 727 728 729 730 731 732 733 734 735 736 737 738 739 740 741 742 743 744 745 746 747 748 749 750 751 752 752 753 754 754 755 756 756 757 758 758 759 759 760 760 760 760 761 762 764 766 768 769 770 771 772 773 774 776 777 778 779 779 780 781 782 782 781 780 779
720 721 722 724 725 726 727 727 728 729 730 731 732 733 734 735 737 738 739 740 741 742 743 744 745 746 747 748 749 750 750 751 752 752 752 753 754 754 755 756 756 757 757 757 757 758 759 760 762 764 766 767 768 769 770 771 772 773 775 776 776 777 778 778 779 778 777 777 777
717 718 720 721 722 723 724 725 726 727 727 728 730 731 732 733 734 735 736 737 738 740 741 742 743 744 745 746 747 747 748 748 749 749 750 750 751 752 752 753 753 754 754 754 755 756 757 758 760 762 764 765 766 767 767 768 769 771 772 773 773 773 774 774 774 774 774 774 774
714 715 717 718 719 720 721 722 723 724 725 726 727 728 729 730 732 733 734 735 736 737 739 740 741 742 743 743 744 744 745 745 746 746 747 747 748 748 749 750 750 751 751 752 752 753 754 756 758 760 762 763 763 764 764 765 766 767 768 769 769 769 769 770 770 770 771 772 772
711 712 714 715 716 717 718 719 720 721 722 723 724 725 727 728 729 730 731 732 734 735 736 737 738 739 740 740 740 741 741 742 742 743 744 744 745 746 746 747 747 748 748 749 749 750 752 754 756 758 759 760 761 761 762 763 764 765 765 765 765 765 766 766 767 768 768 769 769
708 710 711 712 713 714 715 715 716 717 718 720 722 723 724 725 726 727 728 730 731 732 733 734 735 736 736 736 736 737 737 738 739 740 741 741 742 742 743 743 744 745 745 746 747 747 749 752 753 756 757 758 759 760 761 762 763 764 764 763 763 762 763 764 765 766 767 767 767
706 707 708 709 710 711 711 712 713 714 716 717 719 720 721 722 723 724 726 727 728 729 730 731 732 733 733 733 733 734 734 735 736 737 737 738 739 739 740 741 742 742 743 743 743 745 747 749 752 754 756 757 758 759 760 761 762 762 762 762 761 761 761 762 763 764 765 766 766
702 704 705 706 707 707 708 709 710 712 713 715 716 717 718 719 720 721 723 725 726 727 728 730 730 731 731 731 731 732 732 732 733 734 734 735 736 737 737 738 739 740 741 741 741 742 744 747 750 752 754 756 757 757 758 759 760 760 760 759 759 759 760 761 762 763 763 764 765
699 701 702 702 703 704 705 706 708 709 711 712 713 714 715 716 717 719 721 723 724 726 727 727 728 728 729 729 729 730 730 730 731 732 732 733 734 735 736 737 737 738 739 739 739 740 742 745 748 750 752 753 754 755 756 757 757 758 757 757 757 757 757 758 759 760 761 761 762
696 697 698 699 700 701 702 703 705 707 708 710 711 712 713 714 716 717 719 720 722 723 724 725 726 726 727 727 728 728 728 729 729 730 731 732 733 734 735 735 736 737 737 737 737 738 739 742 744 747 749 750 752 752 753 754 755 755 755 754 754 754 754 754 754 755 756 757 758
693 694 695 696 697 698 699 701 702 704 706 707 708 709 710 712 713 715 716 718 720 721 722 722 723 724 724 725 726 726 727 727 728 729 731 732 732 733 733 734 734 735 735 735 736 736 737 739 741 743 746 748 749 750 751 752 752 752 752 752 752 752 752 752 752 752 753 754 755
690 691 692 693 694 695 697 698 700 702 703 704 705 706 708 709 711 713 714 716 718 719 720 720 721 722 722 723 724 725 725 726 727 728 730 730 731 732 732 732 732 733 733 733 734 735 736 737 738 741 743 745 747 748 748 749 750 750 750 751 751 752 752 752 752 752 752 753 754
687 688 689 691 692 693 695 697 698 699 700 701 702 704 705 707 709 711 712 714 715 716 717 717 718 719 720 721 722 723 724 725 726 727 728 729 729 730 730 731 731 731 730 731 732 733 734 735 737 739 740 742 743 745 746 747 747 748 749 750 750 751 750 750 750 750 750 751 751
685 686 687 689 690 692 693 694 696 697 697 698 700 702 703 705 707 708 710 711 712 713 713 714 715 716 717 719 720 721 722 723 724 725 726 727 728 728 729 729 729 728 727 728 729 730 732 733 735 737 738 739 741 742 743 744 745 747 748 748 748 748 748 748 748 748 748 748 748
683 685 686 687 688 689 691 692 693 694 695 696 698 699 701 702 704 705 707 708 709 710 711 712 713 714 716 717 719 720 721 722 722 723 724 725 726 726 727 727 726 725 725 726 727 729 730 732 733 734 736 737 738 740 741 742 744 745 746 746 747 747 747 747 747 747 747 747 747
682 683 684 685 686 687 688 689 690 692 693 695 696 697 699 700 701 703 704 705 707 707 708 709 711 712 714 716 717 718 719 720 720 721 721 722 723 723 724 724 724 724 724 725 726 727 729 731 732 734 735 736 737 738 740 741 742 744 745 745 745 746 746 746 746 746 747 747 747
680 681 682 682 683 685 686 687 688 689 691 693 694 695 697 698 699 701 702 703 704 705 706 708 709 711 712 713 715 716 717 717 719 720 720 721 721 722 722 722 723 723 723 724 725 727 728 730 732 733 735 736 737 737 739 740 741 742 743 744 744 745 745 745 746 746 747 747 747